Regional Weather Roundup
Issued by NWS Sioux Falls, SD

Home | Current Version | Previous Version | Graphics & Text | Print | Product List | Glossary On
Versions: 1 2 3 4 5 6 7 8 9 10 11 12 13 14 15 16 17 18 19 20 21 22 23 24 25 26 27 28 29 30 31 32 33 34 35 36 37 38 39 40 41 42 43 44 45 46 47 48 49 50
000
ASUS43 KFSD 291202
RWRFSD

WEATHER ROUNDUP FOR SE SOUTH DAKOTA/SW MINNESOTA/NW IOWA
NATIONAL WEATHER SERVICE SIOUX FALLS SD
700 AM CDT MON MAY 29 2017

NOTE: "FAIR" INDICATES FEW OR NO CLOUDS BELOW 12,000 FEET WITH NO
SIGNIFICANT WEATHER AND OR OBSTRUCTIONS TO VISIBILITY.


SDZ038>040-050-052>070-291300-
SOUTHEAST SOUTH DAKOTA

CITY           SKY/WX    TMP DP  RH WIND       PRES   REMARKS
BROOKINGS      SUNNY     48  44  86 NW10      29.91S
CHAMBERLAIN    NOT AVBL
HURON          CLEAR     48  42  80 NW13      29.96R
6HR MIN TEMP:  45; 6HR MAX TEMP:  51; 6HR PCP: TRACE;

MADISON        FAIR      46  46 100 NW15      29.93S
MITCHELL       CLEAR     50  42  74 W14       29.98R
6HR MIN TEMP:  49; 6HR MAX TEMP:  54;

SIOUX FALLS    SUNNY     52  45  77 NW14      29.94R
6HR MIN TEMP:  48; 6HR MAX TEMP:  54;

WINNER         FAIR      48  41  76 W8        30.05R
YANKTON        CLEAR     52  46  80 NW10      29.98R
$$

MNZ071-072-080-081-089-090-097-098-291300-
SOUTHWEST MINNESOTA

CITY           SKY/WX    TMP DP  RH WIND       PRES   REMARKS
FAIRMONT       SUNNY     54  45  71 NW13      29.88R
JACKSON        SUNNY     50  45  81 CALM      29.89R
LUVERNE        SUNNY     50  43  76 NW12      29.92R
MARSHALL       PTSUNNY   53  45  74 W15       29.87S
6HR MIN TEMP:  50; 6HR MAX TEMP:  53;

MONTEVIDEO     CLOUDY    54  46  76 NW9       29.85R
PIPESTONE      SUNNY     48  41  76 NW10      29.91R
REDWOOD FALLS  CLOUDY    53  45  74 W13       29.85R
TRACY          SUNNY     53  46  78 W9        29.88R
WINDOM         MOSUNNY   52  45  76 W14       29.87R
WORTHINGTON    MOSUNNY   51  44  77 W16       29.90R
$$

IAZ001>003-012>014-020>022-031-032-NEZ013-014-SDZ071-291300-
NORTHWEST IOWA

CITY           SKY/WX    TMP DP  RH WIND       PRES   REMARKS
CHEROKEE       SUNNY     49  46  89 CALM      29.94R
DENISON        SUNNY     48  46  93 CALM      29.97R
ESTHERVILLE    SUNNY     52  47  83 W10       29.88R
LE MARS        SUNNY     54  46  76 W6        29.96R
ORANGE CITY    SUNNY     52  46  82 NW8       29.94R
SHELDON        SUNNY     54  45  71 NW12      29.91R
SIOUX CITY     SUNNY     50  47  89 SW5       29.96R
6HR MIN TEMP:  46; 6HR MAX TEMP:  55;

SPENCER        SUNNY     53  46  77 W10       29.91R
6HR MIN TEMP:  48; 6HR MAX TEMP:  53;

STORM LAKE     MOSUNNY   52  43  71 W7        29.93R
$$

ABBREVIATIONS USED IN REMARKS
   TC - TEMPERATURE IN CELSIUS
  WCI - WIND CHILL INDEX
   HX - HEAT INDEX
  VSB - VISIBILITY




USA.gov is the U.S. government's official web portal to all federal, state and local government web resources and services.